EHI
27 24 21 21 26 31 35 36 36 31 25 22 17 11 6 4 4 5 6 4 2 3 6 6 4 3 4 5 6 7 8 9 8 8 6 5 4 3 5 9 10 9 8
23 18 15 18 21 26 29 34 35 29 24 20 14 10 7 4 4 6 7 4 1 1 3 5 4 3 4 4 4 5 6 6 7 7 5 3 3 3 4 5 5 5 6
17 12 9 12 15 21 28 33 34 28 19 13 9 8 7 5 5 9 11 8 4 3 4 5 6 5 5 4 4 3 4 4 6 6 4 2 1 2 3 2 2 2 2
12 10 9 9 13 19 29 37 35 26 16 9 6 6 5 5 7 11 14 13 10 8 7 8 10 10 7 6 4 3 3 4 4 4 3 2 1 1 2 2 1 1 1
9 10 11 12 14 18 26 34 35 27 18 12 8 7 5 4 6 10 13 15 14 11 9 10 12 12 9 6 4 4 3 3 3 3 3 2 1 1 1 1 1 1 1
8 10 13 16 16 16 20 28 34 29 19 14 11 9 6 5 5 7 8 9 11 11 9 9 11 11 8 5 4 3 3 3 3 3 3 2 2 1 1 0 0 0 1
8 9 12 14 13 13 16 24 31 27 19 15 12 10 8 6 4 4 3 3 4 6 6 6 8 8 5 3 3 3 2 3 3 3 2 2 2 2 1 0 0 0 0
8 8 9 9 7 8 13 21 27 25 21 17 13 10 8 6 4 2 1 0 0 1 2 3 5 5 3 1 2 2 2 3 3 2 1 2 2 3 2 1 1 0 0
7 6 6 5 4 6 10 16 22 24 21 16 12 9 7 5 3 2 2 1 0 0 0 1 3 3 2 2 2 2 2 2 2 2 1 1 1 2 3 3 2 1 0
5 5 5 5 5 7 9 13 18 19 16 11 8 6 5 4 3 3 3 2 1 1 0 0 1 2 2 2 3 3 1 1 1 1 1 0 0 1 2 2 2 2 1
4 5 6 7 7 7 9 11 13 12 9 5 3 3 3 3 3 3 3 3 2 1 0 0 0 1 1 1 2 2 1 0 0 0 0 0 0 0 1 1 1 2 2
5 6 8 8 6 6 8 8 7 5 3 2 2 2 2 3 3 3 2 2 1 1 0 0 0 0 0 0 1 1 1 0 0 0 0 0 0 0 0 0 0 1 1
8 10 11 10 9 8 7 5 3 2 2 1 2 3 3 3 3 2 2 1 1 0 0 0 0 0 0 0 0 0 0 0 0 0 0 0 0 0 0 0 0 0 0
10 14 16 14 13 11 7 3 2 2 2 2 2 3 4 4 3 3 2 2 2 1 1 1 1 0 0 0 0 0 0 0 0 0 0 0 0 0 0 0 0 0 0
10 14 16 15 12 9 5 2 2 3 3 2 2 3 4 3 3 3 3 3 3 2 2 2 2 1 0 0 0 0 0 0 0 0 0 0 0 0 0 0 0 0 0
9 12 15 13 9 6 3 2 2 3 3 3 3 3 4 3 3 3 3 3 3 3 3 3 3 1 0 0 0 0 0 0 0 0 0 0 0 0 0 0 0 0 0
10 12 14 12 7 4 3 3 3 4 5 4 4 4 5 4 3 3 3 4 4 4 3 3 3 2 1 0 0 0 0 0 0 0 0 0 0 0 0 0 0 0 0
12 13 12 9 6 3 3 5 6 6 6 6 6 6 6 5 4 4 4 5 6 5 4 3 2 2 1 0 0 0 0 0 0 0 0 0 0 0 0 0 0 0 0
13 12 8 6 4 3 3 5 6 6 6 6 6 6 6 6 6 6 6 6 6 6 4 2 1 1 0 0 0 0 0 0 0 0 0 0 0 0 0 0 0 0 0
13 10 6 4 4 3 4 6 7 7 7 7 7 7 7 6 6 6 6 6 6 5 3 1 0 0 0 0 0 0 0 0 0 0 0 0 0 0 0 0 0 0 0
11 9 7 6 5 4 5 7 8 8 8 7 7 8 7 6 6 6 6 6 5 4 2 1 0 0 0 0 0 0 0 0 0 0 0 0 0 0 0 0 0 0 0
7 6 7 7 6 5 6 8 8 8 7 7 7 8 8 6 5 5 5 5 4 2 1 0 0 0 0 0 0 0 0 0 0 0 0 0 0 0 0 0 0 0 0
7 5 6 7 7 7 7 7 8 7 6 5 5 6 7 5 4 4 4 3 1 0 0 0 0 1 1 1 0 0 0 0 0 0 0 0 0 0 0 0 0 0 0
9 8 8 8 8 8 7 7 7 7 6 4 3 3 4 4 3 3 3 2 0 0 0 0 0 1 1 1 0 0 0 0 0 0 0 0 0 0 0 0 0 0 0
16 14 13 10 8 8 8 7 7 8 7 4 1 1 1 2 3 3 3 2 0 0 0 0 0 0 0 0 0 0 0 0 0 0 0 0 0 0 0 0 0 0 0
23 21 17 12 7 8 9 7 8 10 9 5 2 1 0 1 2 3 3 1 0 0 0 0 0 0 0 0 0 0 0 0 0 0 0 0 0 0 0 0 0 0 0
Wind_Speed
9 9 9 9 8 7 5 4 4 3 2 2 1 1 1 1 1 1 3 2 2 2 2 3 2 2 2 2 3 2 3 3 3 3 4 4 6 6 6 6 6 8 9
8 8 9 9 8 6 5 5 4 3 2 2 1 1 1 2 1 1 1 1 1 1 3 2 2 3 2 3 2 2 2 4 2 2 3 3 4 4 7 6 6 7 6
9 8 8 8 7 6 5 5 4 4 3 2 1 2 1 2 1 1 1 1 1 1 2 2 2 3 3 3 3 2 3 3 3 3 2 2 3 3 2 4 4 4 4
9 7 7 7 6 6 6 5 4 3 2 2 2 3 3 3 3 2 2 2 2 2 2 2 2 2 3 4 4 2 3 3 3 3 2 3 2 2 4 3 3 4 4
9 8 7 6 6 6 6 6 5 3 2 1 2 3 4 4 4 4 4 4 4 3 4 2 1 1 3 4 4 4 4 3 4 3 3 3 3 4 4 4 3 2 3
9 8 8 6 5 5 5 5 5 3 1 1 2 2 4 4 5 5 5 4 3 3 3 2 2 2 3 4 4 4 5 4 4 4 3 3 3 3 3 4 4 3 3
9 8 8 7 6 5 4 4 5 3 1 1 2 3 4 5 5 4 4 4 4 3 4 4 3 3 4 4 4 4 5 5 5 5 4 4 4 3 3 4 4 4 3
9 9 8 7 6 6 4 4 5 2 1 1 2 2 3 3 3 5 5 5 4 4 5 5 4 4 5 6 4 4 5 5 5 6 5 4 4 4 3 3 3 4 4
9 8 8 7 5 5 4 3 4 2 1 1 2 3 2 2 3 4 4 4 4 5 5 6 6 5 5 5 5 4 5 5 5 5 5 5 4 4 4 4 3 3 4
9 8 7 6 4 4 3 3 2 2 1 1 2 3 3 3 3 4 4 4 4 5 5 5 6 5 5 6 5 5 5 5 5 4 5 5 5 5 4 3 3 3 4
9 8 7 6 5 4 3 3 2 2 1 1 1 2 3 3 3 3 4 4 4 5 5 5 5 6 6 6 5 6 6 6 6 6 6 6 5 5 5 4 4 4 4
8 8 8 6 4 3 2 2 1 1 1 1 1 2 1 2 4 5 4 4 4 5 6 5 5 6 6 5 6 7 7 6 6 6 6 6 6 6 5 5 5 5 4
6 7 7 5 4 3 2 1 1 0 0 1 2 1 2 3 3 4 4 4 5 5 5 5 5 6 6 6 6 6 6 6 6 6 6 6 7 6 5 6 6 5 6
6 7 6 5 4 3 2 0 0 1 1 1 3 2 2 3 4 4 4 5 5 5 5 5 5 6 6 7 6 6 6 6 6 6 7 7 7 7 6 6 6 6 5
9 8 7 6 4 3 2 1 0 1 1 2 3 2 2 3 4 4 5 5 5 7 5 5 6 6 6 5 4 5 7 6 7 7 7 8 9 9 7 7 5 5 4
9 9 8 7 5 3 2 1 1 0 1 2 3 2 3 4 4 5 5 4 5 5 5 6 6 7 7 2 1 3 6 6 7 7 7 8 10 10 12 13 11 9 7
8 8 8 7 5 4 3 2 2 1 2 3 4 3 3 4 4 6 5 5 5 5 6 6 6 6 6 6 6 6 6 7 8 8 7 9 10 8 6 8 11 12 13
8 8 7 7 6 5 4 3 2 2 2 3 3 3 4 4 4 5 5 5 5 5 5 6 7 6 7 6 7 7 7 8 8 9 9 8 8 9 6 6 6 6 7
8 8 7 8 6 5 4 2 2 3 3 3 3 3 3 4 5 6 5 5 5 6 6 7 7 7 6 6 8 7 6 7 8 8 8 7 7 6 6 6 6 6 6
8 8 8 7 6 4 3 2 3 2 3 3 3 3 3 4 6 6 5 5 5 6 7 7 6 7 7 6 8 8 5 6 7 6 6 7 7 6 6 6 6 7 6
9 8 7 6 6 5 3 3 3 3 3 3 3 3 4 5 6 5 4 5 6 7 7 8 8 7 7 6 9 10 5 6 6 6 6 3 3 5 6 6 6 7 6
10 9 7 6 6 5 4 4 3 3 3 3 4 4 4 6 6 4 5 5 6 7 8 7 6 5 4 4 6 10 10 8 7 7 6 3 3 5 7 7 9 9 7
9 8 8 6 6 5 4 4 3 2 3 4 4 5 6 6 6 5 6 6 5 6 5 5 5 4 2 2 5 8 10 11 8 7 9 9 10 9 9 12 13 9 7
8 7 7 6 6 5 5 4 3 3 3 4 5 5 6 7 5 4 5 5 5 5 4 5 5 5 3 2 1 2 4 7 7 7 9 11 13 11 10 9 8 8 8
6 6 5 5 5 5 4 4 3 3 3 5 5 7 7 6 4 4 5 6 4 4 4 5 6 6 5 2 2 3 5 5 5 6 7 7 6 5 5 6 6 6 7
6 5 5 5 5 5 4 4 4 3 3 5 6 6 6 5 4 5 5 6 7 7 9 10 8 6 6 6 7 7 8 9 7 5 7 7 7 6 6 5 5 5 6
Wind_Direction
118 116 116 113 110 110 109 109 103 103 90 58 25 12 18 351 17 115 96 85 43 23 324 347 346 322 323 322 300 295 283 264 247 263 280 265 244 235 228 225 226 222 220
127 129 128 125 123 123 125 127 119 105 83 66 10 289 341 301 291 51 80 76 51 356 316 14 328 334 327 300 292 291 289 289 283 262 282 287 271 244 236 222 221 223 219
150 149 144 136 133 132 129 110 96 90 71 29 353 359 338 308 357 23 68 60 14 321 324 329 319 325 312 310 314 298 286 290 298 267 265 281 291 321 279 242 231 217 214
153 153 149 140 143 143 132 118 112 97 70 15 6 347 330 338 344 352 10 1 324 301 287 279 292 316 312 312 306 337 313 301 294 289 264 253 275 289 305 296 261 234 224
159 155 150 152 152 144 135 134 127 114 87 10 351 341 345 347 347 348 336 331 302 279 266 251 259 293 291 305 317 316 307 299 291 296 298 286 272 241 252 279 283 270 240
155 149 147 148 144 141 137 131 120 116 108 347 348 352 341 334 326 319 314 311 302 303 322 336 13 319 306 310 306 302 292 285 290 289 284 281 273 273 262 268 278 273 262
154 151 153 156 154 150 141 128 120 118 87 3 359 352 346 321 302 310 327 327 322 331 11 6 347 315 303 292 287 290 284 281 277 274 269 273 272 270 278 280 285 288 283
159 162 164 159 160 155 151 143 124 114 71 3 360 338 320 315 338 2 339 322 322 331 345 337 326 316 307 303 309 298 286 281 278 274 271 272 274 266 258 260 271 288 286
161 165 158 153 154 144 134 115 113 104 63 357 331 274 302 332 331 326 307 317 336 320 342 337 324 315 310 302 298 286 283 282 278 276 278 269 269 268 258 251 241 251 276
161 154 149 145 131 121 122 113 114 118 113 315 313 339 2 325 318 309 316 309 308 314 315 311 309 308 304 298 293 290 284 285 278 265 264 272 270 273 271 261 249 236 247
157 151 144 133 134 140 139 126 123 126 152 227 289 314 302 321 313 296 298 310 313 309 300 299 302 303 299 295 292 287 285 282 278 276 271 267 267 269 275 272 260 246 236
151 144 135 133 138 132 114 113 125 171 198 197 245 270 307 321 314 314 321 319 310 304 302 301 300 297 297 298 293 291 293 292 289 285 281 277 273 262 262 267 268 261 246
140 129 124 129 129 117 104 111 184 218 302 354 314 319 340 325 315 312 308 307 303 301 300 295 294 294 295 293 289 285 284 285 286 286 284 281 279 274 266 263 263 264 263
145 135 128 132 124 128 134 181 9 26 357 356 320 331 328 315 308 304 303 299 299 298 295 295 292 289 289 286 289 293 291 289 287 285 283 279 276 272 269 265 258 260 263
156 148 144 135 139 145 150 153 134 56 354 310 299 306 304 300 298 296 295 293 294 297 300 299 292 288 283 284 296 298 295 300 296 290 285 279 275 271 262 264 264 269 266
162 153 148 144 151 157 157 143 163 130 274 285 292 293 291 290 293 292 288 291 295 297 294 290 290 289 292 312 295 290 299 296 292 289 285 283 273 261 249 245 245 244 250
151 145 145 143 147 151 151 178 208 221 246 268 282 287 290 295 300 305 311 309 307 301 297 294 291 288 281 261 246 249 273 281 280 280 280 282 284 295 275 255 244 241 240
145 140 143 143 149 151 157 186 219 233 248 260 276 291 297 301 306 303 302 304 301 299 296 292 289 284 280 254 236 243 260 272 272 271 268 267 271 279 284 285 273 258 247
130 134 144 145 144 148 155 182 241 253 267 278 288 296 304 306 304 302 302 300 295 294 290 286 284 282 278 244 229 231 271 273 275 273 273 270 269 266 266 267 267 267 266
133 140 142 139 141 145 146 205 255 275 292 302 310 309 307 300 296 293 293 293 290 287 287 287 286 283 278 244 220 218 261 280 286 286 279 269 267 261 253 256 261 262 265
141 141 142 143 146 149 158 216 258 279 296 306 305 296 294 287 279 278 279 282 284 286 285 283 278 272 267 243 216 216 243 273 288 294 296 295 290 254 249 248 255 260 273
154 154 150 149 154 161 177 217 243 268 287 291 290 288 286 287 293 290 283 278 276 280 278 275 279 276 268 243 217 217 230 258 278 284 288 293 276 267 263 254 252 258 264
163 163 160 161 164 172 188 220 232 252 271 280 281 280 280 274 274 278 281 278 272 277 291 300 301 300 299 239 215 219 239 250 256 275 289 294 277 268 259 247 246 247 244
164 164 167 176 178 183 195 211 219 228 257 273 277 275 270 269 268 265 279 285 292 300 311 314 312 313 317 351 358 299 274 265 258 270 284 278 266 255 255 260 236 226 232
164 166 173 183 185 185 195 208 213 220 256 273 276 277 274 275 273 267 264 271 275 278 273 290 299 305 310 336 310 296 302 310 320 317 291 281 278 267 250 242 240 232 225
161 166 177 190 194 193 198 206 209 212 246 270 276 282 287 289 286 282 282 255 243 233 233 241 253 273 269 278 283 282 278 279 284 288 277 278 276 273 268 258 248 238 235